SVA1334 OEHL-OERK

Flight info

Callsign SVA1334
Flight time 0h 50m
Altitude 39000
Route HIL G662 SIVIS
Aircraft A321/M-SDE2E3FGHIRWY/L

Departure

Time 2026-04-22 13:43
Airport Hail International Airport (OEHL)

Arrival

Time 2026-04-22 14:34
Airport King Khalid International Airport (OERK)
Time Latitude Longitude Altitude Speed Heading
2026-04-22 13:12 27.43911 41.68938 3287 ft 0 kts 96°
2026-04-22 13:32 27.43912 41.68929 3287 ft 4 kts 96°
2026-04-22 13:33 27.43915 41.68899 3287 ft 4 kts 97°
2026-04-22 13:33 27.43919 41.68869 3287 ft 4 kts 101°
2026-04-22 13:33 27.43922 41.68851 3287 ft 1 kts 103°
2026-04-22 13:33 27.43923 41.68849 3287 ft 0 kts 103°
2026-04-22 13:36 27.43923 41.68850 3287 ft 1 kts 104°
2026-04-22 13:36 27.43920 41.68851 3287 ft 0 kts 129°
2026-04-22 13:37 27.43906 41.68856 3287 ft 4 kts 163°
2026-04-22 13:37 27.43860 41.68859 3288 ft 8 kts 181°
2026-04-22 13:37 27.43813 41.68857 3290 ft 5 kts 183°
2026-04-22 13:37 27.43789 41.68855 3290 ft 3 kts 183°
2026-04-22 13:38 27.43760 41.68854 3291 ft 6 kts 182°
2026-04-22 13:38 27.43626 41.68843 3295 ft 14 kts 184°
2026-04-22 13:38 27.43515 41.68835 3298 ft 18 kts 184°
2026-04-22 13:39 27.43387 41.68825 3301 ft 15 kts 185°
2026-04-22 13:39 27.43291 41.68817 3302 ft 13 kts 183°
2026-04-22 13:39 27.43206 41.68812 3302 ft 12 kts 183°
2026-04-22 13:39 27.43116 41.68806 3302 ft 16 kts 183°
2026-04-22 13:40 27.42973 41.68796 3303 ft 25 kts 185°
2026-04-22 13:40 27.42784 41.68783 3300 ft 22 kts 182°
2026-04-22 13:40 27.42642 41.68773 3301 ft 19 kts 188°
2026-04-22 13:40 27.42548 41.68699 3303 ft 15 kts 231°
2026-04-22 13:41 27.42512 41.68642 3303 ft 12 kts 241°
2026-04-22 13:41 27.42514 41.68544 3303 ft 7 kts 322°
2026-04-22 13:41 27.42552 41.68539 3303 ft 0 kts
2026-04-22 13:42 27.42582 41.68541 3303 ft 17 kts
2026-04-22 13:43 27.42967 41.68567 3302 ft 89 kts
2026-04-22 13:43 27.43771 41.68621 3292 ft 144 kts
2026-04-22 13:43 27.44917 41.68698 3380 ft 177 kts
2026-04-22 13:43 27.46177 41.68800 3974 ft 182 kts
2026-04-22 13:44 27.47433 41.68914 4621 ft 182 kts
2026-04-22 13:44 27.48702 41.69039 5150 ft 187 kts
2026-04-22 13:44 27.50062 41.69157 5360 ft 207 kts
2026-04-22 13:44 27.51568 41.69280 5506 ft 227 kts
2026-04-22 13:45 27.53221 41.69428 5624 ft 250 kts
2026-04-22 13:45 27.55066 41.69600 5914 ft 272 kts
2026-04-22 13:45 27.56974 41.69784 6588 ft 278 kts
2026-04-22 13:45 27.58857 41.70405 7257 ft 282 kts 30°
2026-04-22 13:46 27.60345 41.71837 7938 ft 286 kts 54°
2026-04-22 13:46 27.61175 41.73871 8609 ft 290 kts 80°
2026-04-22 13:46 27.61146 41.76144 9256 ft 294 kts 106°
2026-04-22 13:46 27.60248 41.78211 9823 ft 297 kts 131°
2026-04-22 13:47 27.58795 41.79851 10154 ft 299 kts 139°
2026-04-22 13:47 27.57205 41.81510 10361 ft 322 kts 139°
2026-04-22 13:47 27.55499 41.83277 10488 ft 345 kts 139°
2026-04-22 13:47 27.53685 41.85163 10652 ft 364 kts 139°
2026-04-22 13:48 27.51810 41.87131 11115 ft 372 kts 139°
2026-04-22 13:48 27.49911 41.89136 11699 ft 377 kts 139°
2026-04-22 13:48 27.47991 41.91168 12296 ft 381 kts 139°
2026-04-22 13:48 27.46050 41.93222 12875 ft 385 kts 140°
2026-04-22 13:49 27.44082 41.95303 13457 ft 390 kts 140°
2026-04-22 13:49 27.42095 41.97398 13993 ft 394 kts 140°
2026-04-22 13:49 27.40081 41.99514 14485 ft 397 kts 141°
2026-04-22 13:49 27.38050 42.01645 14973 ft 401 kts 141°
2026-04-22 13:50 27.36002 42.03799 15470 ft 404 kts 141°
2026-04-22 13:50 27.33955 42.05956 15942 ft 408 kts 141°
2026-04-22 13:50 27.31867 42.08158 16399 ft 411 kts 141°
2026-04-22 13:50 27.29775 42.10361 16842 ft 414 kts 141°
2026-04-22 13:51 27.27660 42.12582 17276 ft 417 kts 142°
2026-04-22 13:51 27.25530 42.14811 17675 ft 420 kts 142°
2026-04-22 13:51 27.23378 42.17062 18097 ft 423 kts 142°
2026-04-22 13:51 27.21222 42.19319 18482 ft 426 kts 142°
2026-04-22 13:52 27.19043 42.21598 18848 ft 429 kts 142°
2026-04-22 13:52 27.16850 42.23892 19198 ft 432 kts 142°
2026-04-22 13:52 27.14645 42.26200 19554 ft 435 kts 142°
2026-04-22 13:52 27.12425 42.28524 19913 ft 438 kts 143°
2026-04-22 13:53 27.10193 42.30871 20252 ft 442 kts 141°
2026-04-22 13:53 27.08145 42.33488 20629 ft 452 kts 132°
2026-04-22 13:53 27.06422 42.36479 20990 ft 460 kts 126°
2026-04-22 13:53 27.04784 42.39579 21340 ft 463 kts 126°
2026-04-22 13:54 27.03127 42.42698 21694 ft 467 kts 126°
2026-04-22 13:54 27.01453 42.45832 22063 ft 470 kts 126°
2026-04-22 13:54 26.99762 42.48987 22416 ft 474 kts 127°
2026-04-22 13:54 26.98058 42.52163 22778 ft 477 kts 127°
2026-04-22 13:55 26.96343 42.55359 23128 ft 480 kts 127°
2026-04-22 13:55 26.94615 42.58577 23475 ft 483 kts 127°
2026-04-22 13:55 26.92854 42.61863 23783 ft 487 kts 127°
2026-04-22 13:55 26.91107 42.65125 24077 ft 489 kts 127°
2026-04-22 13:56 26.89352 42.68396 24386 ft 492 kts 127°
2026-04-22 13:56 26.87584 42.71686 24684 ft 494 kts 127°
2026-04-22 13:56 26.85808 42.74992 24990 ft 496 kts 127°
2026-04-22 13:56 26.84026 42.78315 25300 ft 499 kts 127°
2026-04-22 13:57 26.82237 42.81645 25596 ft 501 kts 127°
2026-04-22 13:57 26.80436 42.84993 25893 ft 503 kts 127°
2026-04-22 13:57 26.78619 42.88358 26187 ft 505 kts 127°
2026-04-22 13:57 26.76794 42.91725 26458 ft 508 kts 127°
2026-04-22 13:58 26.74958 42.95111 26726 ft 510 kts 127°
2026-04-22 13:58 26.73121 42.98510 26979 ft 512 kts 127°
2026-04-22 13:58 26.71277 43.01923 27223 ft 514 kts 127°
2026-04-22 13:58 26.69421 43.05358 27433 ft 516 kts 127°
2026-04-22 13:59 26.67569 43.08785 27664 ft 518 kts 127°
2026-04-22 13:59 26.65694 43.12245 27885 ft 519 kts 127°
2026-04-22 13:59 26.63820 43.15699 28087 ft 520 kts 127°
2026-04-22 13:59 26.61944 43.19150 28365 ft 520 kts 127°
2026-04-22 14:00 26.60067 43.22601 28646 ft 520 kts 127°
2026-04-22 14:00 26.58188 43.26055 28887 ft 520 kts 127°
2026-04-22 14:00 26.54439 43.32951 28952 ft 520 kts 127°
2026-04-22 14:01 26.50683 43.39854 28953 ft 520 kts 127°
2026-04-22 14:01 26.46920 43.46745 28946 ft 520 kts 127°
2026-04-22 14:02 26.43155 43.53627 28934 ft 520 kts 127°
2026-04-22 14:02 26.39384 43.60514 28903 ft 520 kts 127°
2026-04-22 14:03 26.35612 43.67396 28898 ft 520 kts 127°
2026-04-22 14:03 26.31839 43.74270 28885 ft 520 kts 127°
2026-04-22 14:04 26.28122 43.81230 28890 ft 522 kts 124°
2026-04-22 14:04 26.24785 43.88456 28904 ft 525 kts 121°
2026-04-22 14:05 26.21628 43.95730 28905 ft 524 kts 121°
2026-04-22 14:06 26.16705 44.06582 28922 ft 524 kts 123°
2026-04-22 14:06 26.13343 44.13774 28928 ft 524 kts 123°
2026-04-22 14:07 26.09991 44.20979 28933 ft 524 kts 122°
2026-04-22 14:07 26.06656 44.28190 28931 ft 524 kts 122°
2026-04-22 14:08 26.03322 44.35398 28928 ft 524 kts 122°
2026-04-22 14:08 25.99981 44.42605 28931 ft 525 kts 122°
2026-04-22 14:09 25.96628 44.49804 28934 ft 525 kts 123°
2026-04-22 14:09 25.93268 44.57013 28930 ft 525 kts 123°
2026-04-22 14:10 25.89875 44.64280 28925 ft 526 kts 123°
2026-04-22 14:10 25.86494 44.71501 28928 ft 529 kts 123°
2026-04-22 14:11 25.83056 44.78813 28931 ft 539 kts 123°
2026-04-22 14:11 25.80155 44.84988 28929 ft 544 kts 122°
2026-04-22 14:12 25.76088 44.93659 28928 ft 546 kts 122°
2026-04-22 14:12 25.73140 44.99921 28931 ft 547 kts 122°
2026-04-22 14:13 25.69593 45.07440 28930 ft 546 kts 122°
2026-04-22 14:13 25.66068 45.14895 28929 ft 545 kts 122°
2026-04-22 14:14 25.62552 45.22324 28926 ft 545 kts 122°
2026-04-22 14:14 25.59037 45.29751 28928 ft 544 kts 122°
2026-04-22 14:15 25.55521 45.37163 28925 ft 543 kts 122°
2026-04-22 14:15 25.53768 45.40862 28554 ft 538 kts 121°
2026-04-22 14:15 25.52034 45.44516 27802 ft 530 kts 122°
2026-04-22 14:15 25.50345 45.48077 27315 ft 517 kts 122°
2026-04-22 14:16 25.48684 45.51571 26738 ft 509 kts 122°
2026-04-22 14:16 25.47044 45.55013 26142 ft 502 kts 122°
2026-04-22 14:16 25.45425 45.58404 25548 ft 495 kts 122°
2026-04-22 14:16 25.43826 45.61749 24948 ft 489 kts 122°
2026-04-22 14:17 25.42240 45.65063 24351 ft 483 kts 122°
2026-04-22 14:17 25.40684 45.68319 23766 ft 477 kts 122°
2026-04-22 14:17 25.39138 45.71548 23135 ft 471 kts 122°
2026-04-22 14:17 25.37612 45.74732 22449 ft 466 kts 122°
2026-04-22 14:18 25.36272 45.77978 21778 ft 465 kts 111°
2026-04-22 14:18 25.35670 45.81473 21124 ft 465 kts 95°
2026-04-22 14:18 25.35573 45.85039 20415 ft 461 kts 93°
2026-04-22 14:18 25.35512 45.88566 19716 ft 457 kts 93°
2026-04-22 14:19 25.35162 45.92008 19057 ft 446 kts 108°
2026-04-22 14:19 25.34082 45.95165 18409 ft 433 kts 123°
2026-04-22 14:19 25.32485 45.97922 17674 ft 424 kts 129°
2026-04-22 14:19 25.30838 46.00609 16958 ft 420 kts 129°
2026-04-22 14:20 25.27561 46.05927 15682 ft 411 kts 129°
2026-04-22 14:20 25.25961 46.08516 15084 ft 406 kts 129°
2026-04-22 14:20 25.24357 46.11113 14499 ft 401 kts 129°
2026-04-22 14:21 25.21249 46.16154 13302 ft 393 kts 128°
2026-04-22 14:21 25.19742 46.18594 12822 ft 385 kts 128°
2026-04-22 14:22 25.16645 46.23410 11597 ft 376 kts 133°
2026-04-22 14:22 25.14897 46.25517 11117 ft 368 kts 139°
2026-04-22 14:22 25.10981 46.28959 10227 ft 351 kts 150°
2026-04-22 14:23 25.08916 46.30333 9749 ft 346 kts 149°
2026-04-22 14:23 25.07282 46.32202 9575 ft 336 kts 122°
2026-04-22 14:23 25.06505 46.34566 9446 ft 324 kts 101°
2026-04-22 14:23 25.06428 46.36993 9311 ft 312 kts 85°
2026-04-22 14:24 25.06786 46.39324 8985 ft 307 kts 71°
2026-04-22 14:24 25.07629 46.41459 8743 ft 297 kts 64°
2026-04-22 14:24 25.08515 46.43428 8605 ft 277 kts 63°
2026-04-22 14:24 25.09315 46.45285 8486 ft 259 kts 67°
2026-04-22 14:25 25.10094 46.46990 8345 ft 241 kts 49°
2026-04-22 14:25 25.11397 46.48058 8109 ft 231 kts 15°
2026-04-22 14:25 25.12959 46.48173 7834 ft 220 kts 344°
2026-04-22 14:25 25.14418 46.47671 7485 ft 220 kts 337°
2026-04-22 14:26 25.15845 46.47065 7154 ft 219 kts 335°
2026-04-22 14:26 25.17266 46.46468 6824 ft 220 kts 343°
2026-04-22 14:26 25.18778 46.46519 6505 ft 220 kts 20°
2026-04-22 14:26 25.19990 46.47494 6176 ft 218 kts 55°
2026-04-22 14:27 25.20629 46.48974 6005 ft 213 kts 78°
2026-04-22 14:27 25.20710 46.50595 6013 ft 212 kts 100°
2026-04-22 14:27 25.20246 46.52124 6013 ft 210 kts 122°
2026-04-22 14:27 25.19309 46.53341 6008 ft 208 kts 143°
2026-04-22 14:28 25.18078 46.54177 6016 ft 208 kts 151°
2026-04-22 14:28 25.16821 46.54975 6018 ft 213 kts 151°
2026-04-22 14:28 25.15554 46.55781 5989 ft 204 kts 150°
2026-04-22 14:28 25.14360 46.56540 5810 ft 193 kts 150°
2026-04-22 14:29 25.13217 46.57265 5577 ft 186 kts 149°
2026-04-22 14:29 25.12115 46.57964 5337 ft 179 kts 148°
2026-04-22 14:29 25.11075 46.58624 5143 ft 165 kts 148°
2026-04-22 14:29 25.10130 46.59223 4933 ft 151 kts 147°
2026-04-22 14:30 25.09236 46.59790 4741 ft 145 kts 146°
2026-04-22 14:30 25.08371 46.60340 4555 ft 143 kts 146°
2026-04-22 14:30 25.07514 46.60884 4370 ft 142 kts 146°
2026-04-22 14:30 25.06659 46.61426 4187 ft 142 kts 145°
2026-04-22 14:31 25.05800 46.61971 4007 ft 143 kts 145°
2026-04-22 14:31 25.04936 46.62519 3825 ft 144 kts 145°
2026-04-22 14:31 25.04065 46.63071 3645 ft 145 kts 145°
2026-04-22 14:31 25.03183 46.63630 3456 ft 147 kts 144°
2026-04-22 14:32 25.02288 46.64198 3260 ft 149 kts 144°
2026-04-22 14:32 25.01388 46.64768 3062 ft 150 kts 145°
2026-04-22 14:32 25.00492 46.65348 2866 ft 149 kts 144°
2026-04-22 14:32 24.99605 46.65908 2674 ft 144 kts 146°
2026-04-22 14:33 24.98748 46.66435 2454 ft 139 kts 146°
2026-04-22 14:33 24.97919 46.66971 2241 ft 139 kts 147°
2026-04-22 14:33 24.97081 46.67501 2077 ft 139 kts 147°
2026-04-22 14:33 24.96292 46.68002 2045 ft 107 kts 149°
2026-04-22 14:34 24.95843 46.68285 2039 ft 54 kts 149°
2026-04-22 14:34 24.95642 46.68422 2044 ft 22 kts 146°
2026-04-22 14:34 24.95537 46.68534 2041 ft 20 kts 128°
2026-04-22 14:34 24.95488 46.68654 2044 ft 6 kts 94°
2026-04-22 14:35 24.95487 46.68693 2039 ft 2 kts 86°
2026-04-22 14:35 24.95490 46.68710 2043 ft 2 kts 77°
2026-04-22 14:35 24.95497 46.68734 2042 ft 4 kts 72°
2026-04-22 14:35 24.95513 46.68775 2041 ft 9 kts 68°
2026-04-22 14:36 24.95477 46.68853 2038 ft 16 kts 146°
2026-04-22 14:36 24.95373 46.68920 2042 ft 18 kts 149°
2026-04-22 14:36 24.95256 46.68995 2040 ft 21 kts 150°
2026-04-22 14:36 24.95151 46.69061 2041 ft 14 kts 150°
2026-04-22 14:37 24.95058 46.69120 2038 ft 16 kts 150°
2026-04-22 14:37 24.94951 46.69187 2038 ft 19 kts 150°
2026-04-22 14:37 24.94829 46.69266 2039 ft 22 kts 150°
2026-04-22 14:37 24.94692 46.69354 2039 ft 24 kts 150°
2026-04-22 14:38 24.94588 46.69420 2038 ft 14 kts 150°
2026-04-22 14:38 24.94517 46.69496 2041 ft 16 kts 96°
2026-04-22 14:38 24.94563 46.69613 2041 ft 18 kts 61°
2026-04-22 14:38 24.94618 46.69719 2041 ft 15 kts 59°
2026-04-22 14:39 24.94686 46.69845 2037 ft 23 kts 59°
2026-04-22 14:39 24.94778 46.70020 2043 ft 29 kts 60°
2026-04-22 14:39 24.94885 46.70226 2047 ft 31 kts 59°
2026-04-22 14:40 24.95050 46.70540 2047 ft 22 kts 60°
2026-04-22 14:40 24.95106 46.70646 2042 ft 17 kts 60°
2026-04-22 14:40 24.95181 46.70788 2039 ft 21 kts 60°
2026-04-22 14:40 24.95254 46.70926 2038 ft 18 kts 60°
2026-04-22 14:41 24.95295 46.71002 2041 ft 12 kts 55°
2026-04-22 14:41 24.95335 46.71020 2038 ft 9 kts 355°
2026-04-22 14:41 24.95383 46.70995 2040 ft 5 kts 330°
2026-04-22 14:41 24.95406 46.70981 2038 ft 3 kts 330°
2026-04-22 14:42 24.95507 46.70918 2037 ft 14 kts 330°
2026-04-22 14:42 24.95554 46.70888 2035 ft 3 kts 330°
2026-04-22 14:42 24.95580 46.70872 2037 ft 6 kts 330°
2026-04-22 14:42 24.95612 46.70851 2035 ft 4 kts 330°
2026-04-22 14:43 24.95639 46.70830 2039 ft 6 kts 313°
2026-04-22 14:43 24.95644 46.70781 2038 ft 8 kts 258°
2026-04-22 14:43 24.95638 46.70754 2039 ft 5 kts 255°
2026-04-22 14:43 24.95632 46.70728 2038 ft 2 kts 255°
2026-04-22 14:44 24.95631 46.70724 2037 ft 0 kts 254°